�N����,����,�~����,�C��,���x,�C��,����,���ϕ���,�ő�u�ԕ���,�ő厞����,���˗�,�I�_���x,�n�����x,�ő啗���N��,DTYPE
"19/09/25","00:10",0.0,19.8,82.0,1012.6,322.5,1.1,1.9,342.2,0.00,16.7,22.3,"00:01:44",1
"19/09/25","00:20",0.0,19.7,82.7,1012.3,301.0,1.2,2.8,319.0,0.00,16.7,22.1,"00:16:00",1
"19/09/25","00:30",0.0,19.6,82.9,1012.3,329.5,0.8,1.9,340.0,0.00,16.7,22.2,"00:23:48",1
"19/09/25","00:40",0.0,19.3,83.5,1012.6,299.2,0.6,1.4,328.9,0.00,16.5,22.1,"00:30:08",1
"19/09/25","00:50",0.0,19.0,84.8,1012.6,287.7,0.6,1.3,348.2,0.00,16.4,22.0,"00:41:12",1
"19/09/25","01:00",0.0,18.7,85.8,1012.8,312.3,1.1,2.0,319.8,0.00,16.3,22.1,"00:53:52",1
"19/09/25","01:10",0.0,18.4,86.9,1012.8,311.1,0.6,1.2,319.1,0.00,16.2,21.9,"01:01:12",1
"19/09/25","01:20",0.0,18.2,87.8,1013.0,287.7,0.5,0.9,256.3,0.00,16.2,21.9,"01:17:28",1
"19/09/25","01:30",0.0,18.1,88.5,1013.0,321.8,0.7,1.4,335.9,0.00,16.2,22.0,"01:23:20",1
"19/09/25","01:40",0.0,18.0,89.3,1012.8,315.0,1.1,1.6,330.7,0.00,16.3,21.9,"01:36:24",1
"19/09/25","01:50",0.0,17.8,89.5,1013.0,317.3,1.1,1.8,323.0,0.00,16.1,21.8,"01:46:56",1
"19/09/25","02:00",0.0,17.7,90.4,1013.0,305.5,0.6,1.3,321.1,0.00,16.1,21.8,"01:58:18",1
"19/09/25","02:10",0.0,17.4,90.5,1012.8,300.4,0.8,1.3,320.5,0.00,15.9,21.7,"02:07:04",1
"19/09/25","02:20",0.0,17.3,91.2,1013.0,321.1,1.3,1.8,307.6,0.00,15.9,21.5,"02:16:56",1
"19/09/25","02:30",0.0,17.3,91.7,1013.0,291.3,1.0,1.8,308.3,0.00,16.0,21.7,"02:20:48",1
"19/09/25","02:40",0.0,17.2,91.7,1013.3,317.9,0.7,1.2,328.6,0.00,15.9,21.7,"02:30:16",1
"19/09/25","02:50",0.0,17.0,92.0,1013.3,289.6,0.6,1.1,299.3,0.00,15.7,21.4,"02:43:12",1
"19/09/25","03:00",0.0,17.3,92.8,1013.3,326.6,1.0,1.9,330.7,0.00,16.2,21.7,"02:56:56",1
"19/09/25","03:10",0.0,17.4,92.4,1013.5,324.4,1.2,1.6,322.3,0.00,16.2,21.5,"03:03:28",1
"19/09/25","03:20",0.0,17.4,92.5,1013.3,324.3,1.5,2.1,329.2,0.00,16.2,21.4,"03:14:24",1
"19/09/25","03:30",0.0,17.3,92.1,1013.3,326.9,1.2,2.0,318.6,0.00,16.0,21.3,"03:25:36",1
"19/09/25","03:40",0.0,17.2,92.6,1013.5,312.6,1.3,2.0,318.0,0.00,16.0,21.0,"03:36:32",1
"19/09/25","03:50",0.0,17.3,92.9,1013.8,325.9,1.2,2.2,337.7,0.00,16.2,21.3,"03:49:12",1
"19/09/25","04:00",0.0,17.4,92.7,1013.3,337.9,1.0,2.6,338.5,0.00,16.2,21.4,"03:52:16",1
"19/09/25","04:10",0.0,17.2,92.7,1013.8,305.6,1.0,2.0,317.3,0.00,16.0,21.3,"04:04:00",1
"19/09/25","04:20",0.2,17.1,92.8,1013.5,321.9,1.5,2.0,322.8,0.00,16.0,21.3,"04:15:28",1
"19/09/25","04:30",0.0,17.0,93.2,1013.5,319.4,1.0,1.6,323.3,0.00,15.9,21.2,"04:20:24",1
"19/09/25","04:40",0.0,17.2,93.4,1013.3,334.2,1.1,2.0,330.3,0.00,16.2,21.1,"04:30:48",1
"19/09/25","04:50",0.0,17.0,93.0,1014.0,318.9,1.1,1.7,325.6,0.00,15.9,21.0,"04:46:40",1
"19/09/25","05:00",0.0,16.7,93.4,1014.0,314.3,1.2,1.9,317.4,0.00,15.7,21.1,"04:57:20",1
"19/09/25","05:10",0.0,16.9,93.7,1013.5,327.6,1.3,2.2,318.7,0.00,15.9,21.0,"05:04:54",1
"19/09/25","05:20",0.0,17.0,93.8,1014.2,326.9,1.3,2.0,319.7,0.00,16.0,20.9,"05:14:08",1
"19/09/25","05:30",0.0,17.2,93.6,1014.2,330.4,1.7,2.5,325.5,0.00,16.2,20.9,"05:21:20",1
"19/09/25","05:40",0.0,17.0,93.5,1013.8,324.7,1.5,2.1,333.6,0.00,16.0,20.8,"05:32:16",1
"19/09/25","05:50",0.0,16.9,93.6,1014.0,322.3,1.5,2.4,322.0,0.00,15.9,20.9,"05:43:44",1
"19/09/25","06:00",0.0,16.8,93.7,1014.5,322.4,1.5,2.2,336.1,0.00,15.8,20.7,"05:51:30",1
"19/09/25","06:10",0.0,16.9,94.2,1014.2,326.4,1.1,2.0,320.3,0.00,16.0,20.7,"06:02:40",1
"19/09/25","06:20",0.0,17.1,94.1,1014.5,320.8,1.5,3.1,331.4,0.00,16.2,20.9,"06:16:48",1
"19/09/25","06:30",0.0,17.3,94.1,1014.5,315.6,1.7,3.5,327.4,0.00,16.4,20.8,"06:28:08",1
"19/09/25","06:40",0.0,17.5,93.8,1014.7,313.3,1.3,2.1,338.6,0.00,16.5,20.7,"06:39:44",1
"19/09/25","06:50",0.0,17.7,93.6,1014.5,332.5,1.7,2.7,329.3,0.00,16.7,20.6,"06:48:24",1
"19/09/25","07:00",0.0,18.1,93.2,1014.9,324.9,1.7,3.6,338.7,0.00,17.0,20.9,"06:59:04",1
"19/09/25","07:10",0.0,18.5,92.5,1014.9,315.3,1.8,4.2,339.9,0.01,17.3,20.8,"07:05:04",1
"19/09/25","07:20",0.0,19.0,91.1,1015.2,328.5,2.0,4.1,341.4,0.01,17.6,20.8,"07:12:56",1
"19/09/25","07:30",0.0,19.4,89.3,1015.4,330.6,2.3,3.7,17.7,0.03,17.6,20.7,"07:27:36",1
"19/09/25","07:40",0.0,19.7,87.5,1015.4,329.4,2.0,3.9,327.5,0.05,17.6,20.9,"07:32:48",1
"19/09/25","07:50",0.0,20.0,85.9,1015.4,321.4,1.7,4.0,344.6,0.07,17.6,20.9,"07:49:28",1
"19/09/25","08:00",0.0,20.5,84.2,1014.9,301.3,1.2,2.7,352.5,0.10,17.8,20.8,"07:52:32",1
"19/09/25","08:10",0.0,21.0,82.8,1015.2,293.1,1.0,2.7,355.7,0.12,18.0,20.9,"08:00:40",1
"19/09/25","08:20",0.0,21.3,80.2,1014.9,245.0,1.1,3.2,224.8,0.15,17.8,21.2,"08:15:52",1
"19/09/25","08:30",0.0,22.2,76.4,1015.4,323.3,0.7,1.7,359.7,0.19,17.9,21.4,"08:20:02",1
"19/09/25","08:40",0.0,22.1,75.1,1015.2,189.9,0.7,2.2,133.1,0.16,17.5,21.4,"08:33:04",1
"19/09/25","08:50",0.0,22.4,74.1,1014.9,357.7,1.1,3.9,340.4,0.13,17.6,21.5,"08:44:50",1
"19/09/25","09:00",0.0,23.2,69.8,1014.9,5.1,1.1,2.7,3.2,0.25,17.4,21.7,"08:54:40",1
"19/09/25","09:10",0.0,23.5,69.7,1015.2,350.5,0.8,2.2,124.8,0.29,17.7,22.0,"09:00:48",1
"19/09/25","09:20",0.0,23.6,66.7,1014.9,15.0,1.0,2.9,17.5,0.30,17.1,21.9,"09:15:28",1
"19/09/25","09:30",0.0,22.8,67.6,1014.9,16.4,2.0,4.2,75.8,0.16,16.5,22.2,"09:29:12",1
"19/09/25","09:40",0.0,22.9,67.1,1014.9,349.7,2.3,5.5,344.2,0.14,16.5,22.2,"09:34:00",1
"19/09/25","09:50",0.0,23.0,66.3,1014.5,353.6,1.8,3.9,2.3,0.16,16.4,22.3,"09:47:12",1
"19/09/25","10:00",0.2,23.7,66.0,1014.5,350.7,2.0,4.9,338.7,0.25,17.0,22.5,"09:52:40",1
"19/09/25","10:10",0.0,23.6,64.7,1014.2,354.4,1.8,4.1,334.7,0.18,16.6,22.6,"10:05:12",1
"19/09/25","10:20",0.0,24.5,61.9,1014.0,0.4,1.6,4.2,339.2,0.32,16.8,22.7,"10:11:28",1
"19/09/25","10:30",0.0,24.6,61.7,1014.0,346.5,1.6,3.9,348.8,0.36,16.8,22.7,"10:23:20",1
"19/09/25","10:40",0.0,24.6,61.7,1014.0,350.4,1.5,3.2,341.6,0.35,16.8,23.0,"10:35:52",1
"19/09/25","10:50",0.0,25.5,60.1,1013.5,341.5,1.8,4.5,341.2,0.49,17.2,23.3,"10:41:44",1
"19/09/25","11:00",0.0,24.6,60.1,1013.3,358.5,1.7,3.4,335.5,0.36,16.4,23.2,"10:50:56",1
"19/09/25","11:10",0.0,25.0,59.0,1013.5,341.1,1.8,4.8,342.6,0.32,16.5,23.7,"11:07:28",1
"19/09/25","11:20",0.0,25.8,57.3,1013.3,342.1,2.1,4.2,350.6,0.46,16.8,23.7,"11:16:56",1
"19/09/25","11:30",0.0,25.8,56.2,1013.3,336.3,2.1,4.3,349.0,0.52,16.5,24.2,"11:22:48",1
"19/09/25","11:40",0.0,26.0,54.5,1012.8,338.3,1.7,3.9,346.8,0.53,16.2,24.3,"11:35:04",1
"19/09/25","11:50",0.0,26.5,53.4,1013.0,349.8,1.6,3.4,333.6,0.54,16.3,24.5,"11:49:44",1
"19/09/25","12:00",0.0,26.4,55.2,1012.8,306.9,1.6,3.6,356.6,0.41,16.7,24.9,"11:50:08",1
"19/09/25","12:10",0.0,26.8,52.3,1012.3,318.7,1.7,3.9,325.8,0.57,16.3,24.8,"12:01:04",1
"19/09/25","12:20",0.0,26.7,52.9,1011.9,337.7,1.8,3.6,332.0,0.44,16.3,25.2,"12:15:20",1
"19/09/25","12:30",0.0,27.5,53.4,1011.6,349.7,1.6,3.3,345.1,0.50,17.2,25.4,"12:26:48",1
"19/09/25","12:40",0.0,27.2,49.6,1012.3,335.3,1.5,2.9,341.0,0.55,15.8,25.6,"12:33:04",1
"19/09/25","12:50",0.0,27.7,50.9,1012.3,332.7,1.5,3.9,351.1,0.54,16.7,25.7,"12:43:20",1
"19/09/25","13:00",0.0,28.0,51.8,1012.3,338.8,1.7,4.1,339.9,0.54,17.2,26.1,"12:59:20",1
"19/09/25","13:10",0.0,28.0,52.5,1012.3,325.5,1.7,4.3,326.6,0.53,17.4,26.2,"13:01:36",1
"19/09/25","13:20",0.0,27.6,52.1,1012.1,356.0,2.2,4.8,331.7,0.44,16.9,26.2,"13:15:44",1
"19/09/25","13:30",0.2,27.9,49.8,1012.1,349.7,2.2,6.8,345.5,0.54,16.5,26.2,"13:25:20",1
"19/09/25","13:40",0.0,27.8,50.5,1012.1,334.3,2.3,5.4,327.5,0.52,16.6,26.5,"13:38:16",1
"19/09/25","13:50",0.0,27.5,50.9,1011.9,348.8,1.7,4.0,357.3,0.39,16.5,26.5,"13:49:04",1
"19/09/25","14:00",0.0,27.6,51.6,1011.9,348.8,2.6,5.2,339.8,0.44,16.8,26.4,"13:55:04",1
"19/09/25","14:10",0.0,26.8,53.2,1011.6,342.4,2.8,5.6,344.2,0.27,16.5,26.6,"14:01:36",1
"19/09/25","14:20",0.0,27.8,53.3,1011.6,344.7,2.7,5.4,320.6,0.45,17.5,26.6,"14:19:52",1
"19/09/25","14:30",0.0,27.5,53.7,1011.6,341.9,2.7,7.1,335.5,0.47,17.3,26.6,"14:24:00",1
"19/09/25","14:40",0.0,27.1,52.9,1012.3,343.5,3.0,5.8,348.8,0.45,16.7,26.5,"14:32:08",1
"19/09/25","14:50",0.0,26.8,54.7,1011.6,354.1,2.7,5.4,342.2,0.26,17.0,26.5,"14:43:28",1
"19/09/25","15:00",0.0,27.3,54.1,1011.6,347.4,3.1,6.2,347.9,0.40,17.3,26.4,"14:53:52",1
"19/09/25","15:10",0.0,26.0,54.9,1011.4,349.3,2.1,4.8,355.3,0.22,16.3,26.5,"15:06:48",1
"19/09/25","15:20",0.0,26.0,55.8,1012.3,345.2,2.3,7.0,329.1,0.20,16.5,26.5,"15:10:32",1
"19/09/25","15:30",0.0,25.9,56.6,1012.3,339.2,3.4,6.8,2.4,0.25,16.7,26.4,"15:26:48",1
"19/09/25","15:40",0.0,26.2,56.2,1012.6,352.0,2.8,7.1,333.1,0.35,16.8,26.2,"15:36:32",1
"19/09/25","15:50",0.0,26.1,56.1,1012.1,349.0,2.6,6.3,344.9,0.27,16.7,26.3,"15:46:56",1
"19/09/25","16:00",0.0,25.9,56.1,1012.3,338.6,2.6,5.1,318.8,0.25,16.5,26.3,"15:57:20",1
"19/09/25","16:10",0.0,26.3,54.9,1012.1,340.7,2.8,7.1,348.5,0.21,16.6,26.3,"16:01:20",1
"19/09/25","16:20",0.0,26.1,55.6,1012.1,344.9,2.7,6.2,332.2,0.21,16.6,25.9,"16:18:24",1
"19/09/25","16:30",0.0,26.0,56.5,1012.3,342.5,2.2,4.3,343.7,0.17,16.7,25.9,"16:23:12",1
"19/09/25","16:40",0.0,25.7,56.1,1012.8,344.0,2.5,7.2,340.4,0.11,16.3,25.9,"16:35:44",1
"19/09/25","16:50",0.0,25.6,57.1,1012.6,347.1,2.5,4.2,349.7,0.11,16.5,25.9,"16:46:56",1
"19/09/25","17:00",0.0,25.0,58.9,1012.6,337.7,3.0,5.6,349.2,0.06,16.4,25.8,"16:55:20",1
"19/09/25","17:10",0.0,24.6,60.3,1013.0,339.6,3.4,7.8,343.1,0.06,16.4,25.5,"17:09:44",1
"19/09/25","17:20",0.0,24.2,62.2,1013.0,344.8,3.1,5.7,345.4,0.04,16.6,25.4,"17:13:12",1
"19/09/25","17:30",0.0,23.8,63.7,1013.5,338.1,2.2,5.7,341.3,0.02,16.6,25.1,"17:29:36",1
"19/09/25","17:40",0.0,23.4,64.9,1013.8,343.6,3.1,6.0,335.7,0.01,16.5,24.9,"17:35:44",1
"19/09/25","17:50",0.0,23.1,66.0,1014.0,338.3,3.0,6.3,334.0,0.00,16.4,24.9,"17:43:20",1
"19/09/25","18:00",0.0,22.9,66.9,1014.0,338.3,3.0,5.7,343.4,0.01,16.5,24.8,"17:53:12",1
"19/09/25","18:10",0.0,22.7,67.5,1014.2,338.6,2.7,5.7,335.2,0.00,16.4,24.7,"18:09:52",1
"19/09/25","18:20",0.0,22.4,68.5,1014.2,338.2,2.5,5.4,348.7,0.00,16.4,24.5,"18:19:04",1
"19/09/25","18:30",0.0,22.2,69.5,1014.7,336.7,2.6,5.6,350.1,0.00,16.4,24.1,"18:26:40",1
"19/09/25","18:40",0.0,22.1,70.1,1014.5,339.0,3.4,6.7,340.0,0.00,16.4,24.2,"18:32:00",1
"19/09/25","18:50",0.2,22.0,70.9,1014.5,337.0,3.0,4.8,341.3,0.00,16.5,24.2,"18:46:08",1
"19/09/25","19:00",0.0,21.8,71.9,1014.7,333.6,2.6,5.5,334.9,0.00,16.5,24.1,"18:59:04",1
"19/09/25","19:10",0.0,21.7,72.8,1015.2,338.4,2.6,5.4,329.2,0.00,16.6,23.7,"19:01:12",1
"19/09/25","19:20",0.0,21.5,73.5,1015.4,335.5,3.0,6.2,334.3,0.00,16.6,23.7,"19:16:16",1
"19/09/25","19:30",0.0,21.4,73.9,1015.6,333.0,2.5,5.6,341.7,0.00,16.6,23.5,"19:21:20",1
"19/09/25","19:40",0.0,21.4,74.2,1015.9,326.4,2.6,6.3,337.5,0.00,16.7,23.7,"19:37:20",1
"19/09/25","19:50",0.0,21.3,74.6,1015.9,327.2,2.0,3.9,353.5,0.00,16.6,23.3,"19:41:20",1
"19/09/25","20:00",0.0,21.3,75.2,1015.6,336.1,2.3,4.5,341.7,0.00,16.8,23.3,"19:58:00",1
"19/09/25","20:10",0.0,21.2,75.4,1015.9,337.6,2.2,5.2,347.5,0.00,16.7,23.3,"20:00:24",1
"19/09/25","20:20",0.0,21.1,76.3,1016.4,330.1,2.0,3.9,336.4,0.00,16.8,23.2,"20:17:44",1
"19/09/25","20:30",0.0,21.2,76.5,1015.9,334.9,2.6,4.9,1.4,0.00,16.9,23.2,"20:29:52",1
"19/09/25","20:40",0.0,21.2,76.5,1016.1,334.5,2.5,5.0,317.7,0.00,16.9,23.0,"20:37:52",1
"19/09/25","20:50",0.0,21.1,76.6,1016.1,331.7,2.3,6.3,336.6,0.00,16.9,23.0,"20:42:24",1
"19/09/25","21:00",0.0,21.0,77.3,1016.6,308.9,1.3,4.1,342.9,0.00,16.9,22.9,"20:50:56",1
"19/09/25","21:10",0.0,20.6,77.7,1016.6,242.9,0.6,1.8,335.0,0.00,16.6,22.8,"21:00:48",1
"19/09/25","21:20",0.0,20.1,78.3,1016.8,283.5,0.6,1.3,312.3,0.00,16.2,22.7,"21:19:04",1
"19/09/25","21:30",0.0,19.8,80.3,1016.8,302.9,1.1,1.7,323.5,0.00,16.4,22.6,"21:21:28",1
"19/09/25","21:40",0.0,19.9,80.8,1016.6,330.1,1.6,2.8,343.3,0.00,16.5,22.7,"21:34:24",1
"19/09/25","21:50",0.0,19.8,80.7,1016.8,316.7,1.5,2.7,328.9,0.00,16.4,22.4,"21:42:48",1
"19/09/25","22:00",0.0,19.6,81.5,1017.1,325.4,1.3,2.1,336.9,0.00,16.4,22.5,"21:59:52",1
"19/09/25","22:10",0.0,19.5,82.4,1017.1,326.6,1.6,2.4,337.6,0.00,16.5,22.5,"22:03:44",1
"19/09/25","22:20",0.0,19.4,83.0,1016.8,332.0,1.7,2.7,339.1,0.00,16.5,22.2,"22:12:24",1
"19/09/25","22:30",0.0,19.3,83.8,1017.3,332.0,1.8,3.4,354.1,0.00,16.5,22.2,"22:27:20",1
"19/09/25","22:40",0.0,19.1,84.4,1017.3,334.0,1.8,3.5,341.0,0.00,16.4,22.0,"22:35:04",1
"19/09/25","22:50",0.0,19.1,85.2,1017.3,334.2,2.1,3.3,337.1,0.00,16.6,22.1,"22:46:48",1
"19/09/25","23:00",0.0,19.1,85.4,1017.3,336.1,2.2,4.1,339.4,0.00,16.6,21.9,"22:54:08",1
"19/09/25","23:10",0.0,19.1,85.8,1017.3,335.5,2.1,3.9,355.5,0.00,16.7,22.1,"23:09:04",1
"19/09/25","23:20",0.0,19.1,85.9,1017.3,334.9,2.3,3.9,345.1,0.00,16.7,22.1,"23:19:20",1
"19/09/25","23:30",0.0,19.2,85.9,1017.3,334.7,2.6,4.2,340.7,0.00,16.8,21.8,"23:20:32",1
"19/09/25","23:40",0.0,19.2,85.9,1017.3,334.2,2.5,3.7,332.6,0.00,16.8,22.0,"23:37:20",1
"19/09/25","23:50",0.0,19.2,85.9,1017.5,332.9,2.3,3.9,325.6,0.00,16.8,21.7,"23:49:36",1
"19/09/25","24:00",0.0,19.2,85.9,1017.1,330.4,2.3,3.7,339.3,0.00,16.8,21.7,"23:51:20",1
